Eddersheim, Germany

8:29 AM CEST on October 19, 2017 (GMT +0200)
Eddersheim

Weather History for 10637 - May, 2014

Change the Weather History Date:

Sunday, May 4, 2014

  Actual Average Record
Temperature  
Mean Temperature 46 °F -  
Max Temperature 61 °F 67 °F - ()
Min Temperature 31 °F 49 °F - ()
Degree Days  
Heating Degree Days 19    
Moisture  
Dew Point 34 °F    
Average Humidity 57    
Maximum Humidity 93    
Minimum Humidity 22    
Precipitation  
Precipitation 0.00 in - - ()
Sea Level Pressure  
Sea Level Pressure 30.19 in    
Wind  
Wind Speed 3 mph ()    
Max Wind Speed 7 mph    
Max Gust Speed -    
Visibility 6.2 miles    
Events Fog    
T = Trace of Precipitation, MM = Missing Value Source: Averaged Metar Reports

Daily Weather History Graph

Daily Weather History Graph

Search for Another Location

Airport or City:

Trip Planner

Search our weather history database for the weather conditions in past years. The results will help you decide how hot, cold, wet, or windy it might be!

Date:

Astronomy

May. 04, 2014 Rise Set
Actual Time 5:56 AM CEST 8:48 PM CEST
Civil Twilight 5:19 AM CEST 9:26 PM CEST
Nautical Twilight 4:31 AM CEST 10:14 PM CEST
Astronomical Twilight 3:33 AM CEST 11:13 PM CEST
Moon 10:03 AM CEST (5/4) 12:45 AM CEST (5/4)
Length of Visible Light 16h 06m
Length of Day
14h 51m
Waxing Crescent, 25% of the Moon is Illuminated
May 4
Waxing Crescent
May 7
First Quarter
May 14
Full
May 21
Last Quarter
May 28
New

Hourly Weather History & Observations

Time (CEST) Temp. Windchill Dew Point Humidity Pressure Visibility Wind Dir Wind Speed Gust Speed Precip Events Conditions
12:00 AM 40 °F - 35 °F 75% 30.26 in 37 mi NE 2.2 mph - -   Scattered Clouds
12:20 AM 41.0 °F - 33.8 °F 76% 30.24 in - North 2.3 mph - N/A   Clear
12:50 AM 42.8 °F - 33.8 °F 70% 30.24 in - Variable 2.3 mph - N/A   Clear
1:00 AM 42 °F - 33 °F 60% 30.26 in 37 mi NNE 6.7 mph - -  
1:20 AM 39.2 °F - 32.0 °F 75% 30.24 in - SW 2.3 mph - N/A   Clear
1:50 AM 39.2 °F 37.0 °F 32.0 °F 75% 30.24 in 6.2 mi North 3.5 mph - N/A Fog Patches of Fog
2:00 AM 39 °F - 32 °F 67% 30.26 in 34 mi NE 4.5 mph - -  
2:20 AM 35.6 °F 31.7 °F 32.0 °F 87% 30.24 in 6.2 mi North 4.6 mph - N/A Fog Patches of Fog
2:50 AM 35.6 °F - 32.0 °F 87% 30.21 in 6.2 mi Variable 1.2 mph - N/A Fog Patches of Fog
3:00 AM 35 °F - 31 °F 82% 30.25 in 34 mi East 4.5 mph - -  
3:20 AM 33.8 °F - 32.0 °F 93% 30.21 in 6.2 mi South 2.3 mph - N/A Fog Patches of Fog
3:50 AM 33.8 °F - 32.0 °F 93% 30.21 in 6.2 mi WSW 1.2 mph - N/A Fog Patches of Fog
4:00 AM 34 °F - 31 °F 84% 30.25 in 34 mi ENE 2.2 mph - -  
4:20 AM 33.8 °F - 30.2 °F 87% 30.21 in 6.2 mi Variable 1.2 mph - N/A Fog Patches of Fog
4:50 AM 32.0 °F - 30.2 °F 93% 30.21 in 6.2 mi ENE 2.3 mph - N/A Fog Patches of Fog
5:20 AM 32.0 °F - 30.2 °F 93% 30.21 in 6.2 mi Variable 2.3 mph - N/A Fog Patches of Fog
5:50 AM 32.0 °F 28.7 °F 30.2 °F 93% 30.21 in 6.2 mi East 3.5 mph - N/A Fog Patches of Fog
6:00 AM 32 °F - 30 °F 91% 30.25 in 34 mi East 2.2 mph - -   Clear
6:20 AM 33.8 °F - 32.0 °F 93% 30.21 in - Variable 1.2 mph - N/A   Clear
6:50 AM 33.8 °F - 32.0 °F 93% 30.24 in - Variable 1.2 mph - N/A   Clear
7:00 AM 34 °F - 31 °F 86% 30.26 in 34 mi ENE 2.2 mph - -  
7:20 AM 37.4 °F 34.9 °F 33.8 °F 87% 30.24 in - East 3.5 mph - N/A   Clear
7:50 AM 41.0 °F - 35.6 °F 81% 30.24 in - East 2.3 mph - N/A   Clear
8:00 AM 41 °F - 35 °F 71% 30.26 in 31 mi ENE 2.2 mph - -   Clear
8:20 AM 44.6 °F - 35.6 °F 71% 30.24 in - Variable 1.2 mph - N/A   Clear
8:50 AM 48.2 °F - 37.4 °F 66% 30.24 in 6.2 mi NNE 6.9 mph - N/A   Partly Cloudy
9:00 AM 47 °F - 37 °F 58% 30.26 in 31 mi NE 4.5 mph - -   Scattered Clouds
9:20 AM 48.2 °F - 35.6 °F 62% 30.24 in 6.2 mi East 5.8 mph - N/A   Partly Cloudy
9:50 AM 50.0 °F - 35.6 °F 58% 30.24 in 6.2 mi East 4.6 mph - N/A   Partly Cloudy
10:00 AM 51 °F - 36 °F 44% 30.25 in 31 mi NNE 4.5 mph - -   Scattered Clouds
10:20 AM 51.8 °F - 35.6 °F 54% 30.24 in 6.2 mi SE 4.6 mph - N/A   Partly Cloudy
10:50 AM 53.6 °F - 33.8 °F 47% 30.24 in 6.2 mi Variable 3.5 mph - N/A   Partly Cloudy
11:20 AM 55.4 °F - 32.0 °F 41% 30.24 in - Variable 2.3 mph - N/A   Clear
11:50 AM 55.4 °F - 33.8 °F 44% 30.21 in - Calm Calm - N/A   Clear
12:00 PM 55 °F - 33 °F 32% 30.24 in 31 mi NW 6.7 mph - -   Partly Cloudy
12:20 PM 55.4 °F - 33.8 °F 44% 30.21 in - NE 3.5 mph - N/A   Clear
12:50 PM 57.2 °F - 33.8 °F 41% 30.21 in - NW 5.8 mph - N/A   Clear
1:00 PM 58 °F - 33 °F 27% 30.22 in 28 mi WNW 6.7 mph - -   Partly Cloudy
1:20 PM 57.2 °F - 33.8 °F 41% 30.18 in - Variable 3.5 mph - N/A   Clear
1:50 PM 59.0 °F - 33.8 °F 39% 30.18 in - North 1.2 mph - N/A   Clear
2:00 PM 59 °F - 33 °F 26% 30.20 in 28 mi West 6.7 mph - -   Scattered Clouds
2:20 PM 60.8 °F - 37.4 °F 42% 30.18 in - WNW 4.6 mph - N/A   Clear
2:50 PM 59.0 °F - 33.8 °F 39% 30.15 in - NW 3.5 mph - N/A   Clear
3:00 PM 60 °F - 34 °F 26% 30.17 in 25 mi NW 4.5 mph - -   Scattered Clouds
3:20 PM 59.0 °F - 32.0 °F 36% 30.15 in - NNE 5.8 mph - N/A   Clear
3:50 PM 59.0 °F - 32.0 °F 36% 30.15 in - WNW 5.8 mph - N/A   Clear
4:00 PM 60 °F - 33 °F 24% 30.16 in 25 mi WNW 4.5 mph - -   Scattered Clouds
4:20 PM 60.8 °F - 33.8 °F 36% 30.15 in - Variable 3.5 mph - N/A   Clear
4:50 PM 60.8 °F - 35.6 °F 39% 30.15 in - North 2.3 mph - N/A   Clear
5:20 PM 60.8 °F - 35.6 °F 39% 30.12 in - Variable 3.5 mph - N/A   Clear
5:50 PM 62.6 °F - 33.8 °F 34% 30.12 in - Variable 3.5 mph - N/A   Clear
6:00 PM 62 °F - 33 °F 22% 30.14 in 25 mi West 2.2 mph - -   Scattered Clouds
6:20 PM 60.8 °F - 35.6 °F 39% 30.12 in - NW 1.2 mph - N/A   Clear
6:50 PM 60.8 °F - 35.6 °F 39% 30.12 in - NW 1.2 mph - N/A   Clear
7:00 PM 61 °F - 35 °F 26% 30.13 in 28 mi NNW 2.2 mph - -   Scattered Clouds
7:20 PM 60.8 °F - 33.8 °F 36% 30.12 in - NNW 3.5 mph - N/A   Clear
7:50 PM 59.0 °F - 33.8 °F 39% 30.12 in - NNW 4.6 mph - N/A   Clear
8:00 PM 60 °F - 34 °F 26% 30.13 in 31 mi NNW 4.5 mph - -   Scattered Clouds
8:20 PM 57.2 °F - 33.8 °F 41% 30.12 in - North 5.8 mph - N/A   Clear
8:50 PM 55.4 °F - 33.8 °F 44% 30.12 in - North 4.6 mph - N/A   Clear
9:00 PM 56 °F - 35 °F 33% 30.13 in 31 mi North 4.5 mph - -   Clear
9:20 PM 53.6 °F - 35.6 °F 51% 30.12 in - Variable 1.2 mph - N/A   Clear
9:50 PM 51.8 °F - 37.4 °F 58% 30.12 in - Variable 1.2 mph - N/A   Clear
10:00 PM 52 °F - 37 °F 45% 30.14 in 28 mi SSE 2.2 mph - -   Clear
10:20 PM 50.0 °F - 37.4 °F 62% 30.12 in - Variable 1.2 mph - N/A   Clear
10:50 PM 46.4 °F - 37.4 °F 71% 30.12 in - Variable 1.2 mph - N/A   Clear
11:20 PM 48.2 °F - 39.2 °F 71% 30.12 in - North 3.5 mph - N/A   Clear
11:50 PM 50.0 °F - 37.4 °F 62% 30.12 in - NNE 6.9 mph - N/A   Clear